STARLINK-31923

Last updated on Fri Sep 20 2024 00:02:03 GMT+0000 (Coordinated Universal Time)

1 60600U 24150T 24263.36737714 .00001052 00000+0 36288-4 0 9997 2 60600 53.1598 280.6260 0001576 89.0987 271.0198 15.39616183 5892
UTC large
Height (km)
Speed (km/s)
/
Latitude / Longitude
Inclination (degrees)
Orbital Period (minutes)
Azimuth
Elevation
Range (km)
Doppler Factor

Next 0 passes for location: London (51.5072 / 0.1276)

Sorry there are no passes over London.